| time (UTC) | temp F | wind direction | speed MPH | gust MPH | rain 1hr in | rain 24hr in | rain mn in | humidity % | barometer mb |
| 20260505055152 | 57 | 0 | 0.0 | 2.0 | 0.00 | 0.00 | 0.00 | 69 | 1010.4 |
| 20260505054528 | 58 | 0 | 0.0 | 2.0 | 0.00 | 0.00 | 0.00 | 68 | 1010.6 |
| 20260505054108 | 58 | 0 | 0.0 | 1.0 | 0.00 | 0.00 | 0.00 | 68 | 1010.4 |
| 20260505053715 | 58 | 0 | 0.0 | 0.0 | 0.00 | 0.00 | 0.00 | 68 | 1010.4 |
| 20260505053149 | 58 | 0 | 0.0 | 0.0 | 0.00 | 0.00 | 0.00 | 67 | 1010.7 |
| 20260505052520 | 58 | 0 | 0.0 | 3.0 | 0.00 | 0.00 | 0.00 | 67 | 1010.4 |
| 20260505052009 | 58 | 0 | 0.0 | 3.0 | 0.00 | 0.00 | 0.00 | 66 | 1010.5 |
| 20260505051533 | 58 | 0 | 0.0 | 3.0 | 0.00 | 0.00 | 0.00 | 66 | 1010.5 |
| 20260505051011 | 58 | 0 | 0.0 | 2.0 | 0.00 | 0.00 | 0.00 | 66 | 1010.5 |
| 20260505050516 | 58 | 0 | 0.0 | 3.0 | 0.00 | 0.00 | 0.00 | 66 | 1010.7 |
| 20260505041548 | 60 | 0 | 0.0 | 2.0 | 0.00 | 0.00 | 0.00 | 61 | 1010.4 |
| 20260505041011 | 60 | 0 | 0.0 | 3.0 | 0.00 | 0.00 | 0.00 | 60 | 1010.4 |
| 20260505040512 | 60 | 0 | 0.0 | 3.0 | 0.00 | 0.00 | 0.00 | 60 | 1010.3 |
| 20260505040030 | 60 | 14 | 0.0 | 3.0 | 0.00 | 0.00 | 0.00 | 59 | 1010.2 |
| 20260505035509 | 60 | 0 | 0.0 | 2.0 | 0.00 | 0.00 | 0.00 | 58 | 1010.2 |
| 20260505035035 | 61 | 0 | 0.0 | 5.0 | 0.00 | 0.00 | 0.00 | 58 | 1010.2 |
| 20260505034726 | 61 | 0 | 0.0 | 5.0 | 0.00 | 0.00 | 0.00 | 57 | 1010.3 |
| 20260505034230 | 61 | 0 | 0.0 | 5.0 | 0.00 | 0.00 | 0.00 | 57 | 1010.3 |
| 20260505034026 | 61 | 0 | 0.0 | 5.0 | 0.00 | 0.00 | 0.00 | 57 | 1010.3 |
| 20260505033510 | 61 | 0 | 0.0 | 5.0 | 0.00 | 0.00 | 0.00 | 57 | 1010.3 |
| 20260505033112 | 61 | 0 | 1.0 | 5.0 | 0.00 | 0.00 | 0.00 | 56 | 1010.4 |
| 20260505032516 | 61 | 0 | 1.0 | 5.0 | 0.00 | 0.00 | 0.00 | 56 | 1010.4 |
| 20260505032010 | 61 | 13 | 1.0 | 5.0 | 0.00 | 0.00 | 0.00 | 56 | 1010.3 |
| 20260505031536 | 61 | 360 | 1.0 | 5.0 | 0.00 | 0.00 | 0.00 | 55 | 1010.3 |
| 20260505031013 | 61 | 0 | 0.0 | 5.0 | 0.00 | 0.00 | 0.00 | 55 | 1010.5 |
| 20260505030509 | 61 | 0 | 1.0 | 5.0 | 0.00 | 0.00 | 0.00 | 55 | 1010.6 |
| 20260505030036 | 61 | 0 | 0.0 | 4.0 | 0.00 | 0.00 | 0.00 | 55 | 1010.3 |
| 20260505025651 | 61 | 0 | 0.0 | 4.0 | 0.00 | 0.00 | 0.00 | 54 | 1010.4 |
| 20260505025342 | 61 | 0 | 0.0 | 4.0 | 0.00 | 0.00 | 0.00 | 54 | 1010.4 |
| 20260505024619 | 61 | 0 | 1.0 | 4.0 | 0.00 | 0.00 | 0.00 | 54 | 1010.2 |
| 20260505023511 | 61 | 0 | 0.0 | 3.0 | 0.00 | 0.00 | 0.00 | 53 | 1010.4 |
| 20260505023039 | 61 | 0 | 0.0 | 3.0 | 0.00 | 0.00 | 0.00 | 53 | 1010.4 |
| 20260505022515 | 61 | 0 | 0.0 | 2.0 | 0.00 | 0.00 | 0.00 | 54 | 1010.5 |
| 20260505022030 | 61 | 0 | 0.0 | 2.0 | 0.00 | 0.00 | 0.00 | 54 | 1010.6 |
| 20260505021529 | 62 | 20 | 0.0 | 0.0 | 0.00 | 0.00 | 0.00 | 53 | 1010.4 |
| 20260505021010 | 62 | 0 | 0.0 | 3.0 | 0.00 | 0.00 | 0.00 | 53 | 1010.6 |
| 20260505020535 | 62 | 0 | 0.0 | 3.0 | 0.00 | 0.00 | 0.00 | 53 | 1010.5 |
| 20260505020029 | 62 | 13 | 0.0 | 3.0 | 0.00 | 0.00 | 0.00 | 53 | 1010.4 |
| 20260505015517 | 62 | 0 | 0.0 | 3.0 | 0.00 | 0.00 | 0.00 | 52 | 1010.6 |
| 20260505015009 | 62 | 0 | 0.0 | 3.0 | 0.00 | 0.00 | 0.00 | 52 | 1010.5 |
| 20260505014534 | 62 | 0 | 0.0 | 1.0 | 0.00 | 0.00 | 0.00 | 53 | 1010.5 |
| 20260505014009 | 62 | 0 | 0.0 | 4.0 | 0.00 | 0.00 | 0.00 | 53 | 1010.5 |
| 20260505013657 | 62 | 0 | 0.0 | 5.0 | 0.00 | 0.00 | 0.00 | 53 | 1010.5 |
| 20260505013031 | 62 | 13 | 0.0 | 5.0 | 0.00 | 0.00 | 0.00 | 52 | 1010.5 |
| 20260505012515 | 62 | 10 | 0.0 | 5.0 | 0.00 | 0.00 | 0.00 | 53 | 1010.4 |
| 20260505012011 | 62 | 0 | 0.0 | 4.0 | 0.00 | 0.00 | 0.00 | 53 | 1010.4 |
| 20260505011531 | 61 | 9 | 0.0 | 4.0 | 0.00 | 0.00 | 0.00 | 53 | 1010.4 |
| 20260505011051 | 61 | 0 | 0.0 | 2.0 | 0.00 | 0.00 | 0.00 | 54 | 1010.4 |
| 20260505010609 | 61 | 0 | 0.0 | 1.0 | 0.00 | 0.00 | 0.00 | 53 | 1010.4 |
| 20260505010031 | 62 | 0 | 0.0 | 1.0 | 0.00 | 0.00 | 0.00 | 53 | 1010.2 |
| 20260505005556 | 62 | 0 | 0.0 | 1.0 | 0.00 | 0.00 | 0.00 | 52 | 1010.3 |
| 20260505005012 | 62 | 0 | 0.0 | 0.0 | 0.00 | 0.00 | 0.00 | 53 | 1010.1 |
| 20260505004539 | 63 | 0 | 0.0 | 0.0 | 0.00 | 0.00 | 0.00 | 52 | 1010.2 |
| 20260505004013 | 63 | 0 | 0.0 | 0.0 | 0.00 | 0.00 | 0.00 | 52 | 1009.9 |
| 20260505003519 | 63 | 0 | 0.0 | 0.0 | 0.00 | 0.00 | 0.00 | 51 | 1009.9 |
| 20260505003039 | 64 | 0 | 0.0 | 0.0 | 0.00 | 0.00 | 0.00 | 50 | 1009.9 |
| 20260505002516 | 64 | 0 | 0.0 | 0.0 | 0.00 | 0.00 | 0.00 | 49 | 1009.7 |
| 20260505002116 | 64 | 0 | 0.0 | 2.0 | 0.00 | 0.00 | 0.00 | 49 | 1009.8 |
| 20260505001621 | 65 | 0 | 0.0 | 2.0 | 0.00 | 0.00 | 0.00 | 49 | 1009.8 |
| 20260505000552 | 65 | 0 | 0.0 | 2.0 | 0.00 | 0.00 | 0.00 | 47 | 1009.6 |
| 20260505000442 | 65 | 0 | 0.0 | 2.0 | 0.00 | 0.00 | 0.00 | 48 | 1009.6 |
| 20260504235839 | 65 | 0 | 0.0 | 3.0 | 0.00 | 0.00 | 0.00 | 47 | 1009.7 |
| 20260504235709 | 65 | 0 | 0.0 | 3.0 | 0.00 | 0.00 | 0.00 | 47 | 1009.7 |
| 20260504235520 | 66 | 0 | 0.0 | 4.0 | 0.00 | 0.00 | 0.00 | 47 | 1009.6 |
| 20260504233917 | 66 | 0 | 0.0 | 1.0 | 0.00 | 0.00 | 0.00 | 46 | 1009.5 |
| 20260504232559 | 67 | 0 | 0.0 | 5.0 | 0.00 | 0.00 | 0.00 | 45 | 1009.7 |
| 20260504231856 | 67 | 0 | 0.0 | 5.0 | 0.00 | 0.00 | 0.00 | 45 | 1009.6 |
| 20260504231429 | 67 | 0 | 0.0 | 4.0 | 0.00 | 0.00 | 0.00 | 44 | 1009.6 |
| 20260504230512 | 67 | 0 | 0.0 | 4.0 | 0.00 | 0.00 | 0.00 | 44 | 1009.8 |
| 20260504230028 | 67 | 0 | 0.0 | 4.0 | 0.00 | 0.00 | 0.00 | 44 | 1009.5 |
| 20260504225722 | 68 | 0 | 0.0 | 8.0 | 0.00 | 0.00 | 0.00 | 44 | 1009.5 |
| 20260504225458 | 68 | 0 | 0.0 | 8.0 | 0.00 | 0.00 | 0.00 | 44 | 1009.6 |
| 20260504224806 | 68 | 0 | 0.0 | 4.0 | 0.00 | 0.00 | 0.00 | 44 | 1009.5 |
| 20260504224016 | 68 | 0 | 0.0 | 3.0 | 0.00 | 0.00 | 0.00 | 44 | 1009.5 |
| 20260504223803 | 68 | 0 | 0.0 | 4.0 | 0.00 | 0.00 | 0.00 | 43 | 1009.5 |
| 20260504222758 | 68 | 0 | 1.0 | 8.0 | 0.00 | 0.00 | 0.00 | 44 | 1009.6 |
| 20260504214110 | 69 | 0 | 0.0 | 6.0 | 0.00 | 0.00 | 0.00 | 44 | 1009.8 |
| 20260504213510 | 69 | 0 | 0.0 | 5.0 | 0.00 | 0.00 | 0.00 | 41 | 1009.7 |
| 20260504213130 | 69 | 0 | 0.0 | 5.0 | 0.00 | 0.00 | 0.00 | 42 | 1009.8 |
| 20260504212516 | 69 | 0 | 0.0 | 4.0 | 0.00 | 0.00 | 0.00 | 43 | 1009.9 |
| 20260504212150 | 69 | 0 | 0.0 | 5.0 | 0.00 | 0.00 | 0.00 | 42 | 1009.7 |
| 20260504211529 | 69 | 0 | 0.0 | 5.0 | 0.00 | 0.00 | 0.00 | 42 | 1009.7 |
| 20260504211012 | 69 | 360 | 0.0 | 8.0 | 0.00 | 0.00 | 0.00 | 41 | 1009.8 |
| 20260504210616 | 69 | 0 | 0.0 | 8.0 | 0.00 | 0.00 | 0.00 | 43 | 1010.0 |
| 20260504210457 | 69 | 0 | 0.0 | 5.0 | 0.00 | 0.00 | 0.00 | 40 | 1009.9 |
| 20260504205533 | 69 | 0 | 0.0 | 5.0 | 0.00 | 0.00 | 0.00 | 42 | 1009.8 |
| 20260504205010 | 69 | 0 | 0.0 | 5.0 | 0.00 | 0.00 | 0.00 | 42 | 1009.9 |
| 20260504204533 | 69 | 0 | 0.0 | 5.0 | 0.00 | 0.00 | 0.00 | 42 | 1009.8 |
| 20260504204011 | 69 | 0 | 0.0 | 8.0 | 0.00 | 0.00 | 0.00 | 41 | 1009.9 |
| 20260504203544 | 70 | 0 | 0.0 | 8.0 | 0.00 | 0.00 | 0.00 | 40 | 1009.9 |
| 20260504203035 | 71 | 0 | 0.0 | 4.0 | 0.00 | 0.00 | 0.00 | 41 | 1010.0 |
| 20260504202515 | 71 | 0 | 0.0 | 4.0 | 0.00 | 0.00 | 0.00 | 43 | 1009.8 |
| 20260504202013 | 71 | 0 | 0.0 | 8.0 | 0.00 | 0.00 | 0.00 | 39 | 1010.1 |
| 20260504201942 | 71 | 0 | 1.0 | 8.0 | 0.00 | 0.00 | 0.00 | 38 | 1010.1 |
| 20260504201406 | 71 | 0 | 0.0 | 6.0 | 0.00 | 0.00 | 0.00 | 40 | 1010.2 |
| 20260504200513 | 71 | 0 | 0.0 | 4.0 | 0.00 | 0.00 | 0.00 | 38 | 1010.2 |
| 20260504200129 | 72 | 0 | 0.0 | 4.0 | 0.00 | 0.00 | 0.00 | 39 | 1010.3 |
| 20260504195555 | 71 | 0 | 0.0 | 4.0 | 0.00 | 0.00 | 0.00 | 40 | 1010.3 |
| 20260504195123 | 71 | 0 | 0.0 | 4.0 | 0.00 | 0.00 | 0.00 | 42 | 1010.4 |
| 20260504194604 | 72 | 0 | 0.0 | 5.0 | 0.00 | 0.00 | 0.00 | 38 | 1010.4 |
| 20260504194116 | 72 | 0 | 0.0 | 8.0 | 0.00 | 0.00 | 0.00 | 39 | 1010.4 |
| 20260504193512 | 72 | 0 | 0.0 | 8.0 | 0.00 | 0.00 | 0.00 | 41 | 1010.4 |
| 20260504193111 | 72 | 0 | 0.0 | 3.0 | 0.00 | 0.00 | 0.00 | 40 | 1010.5 |
| 20260504192848 | 71 | 0 | 0.0 | 5.0 | 0.00 | 0.00 | 0.00 | 41 | 1010.6 |
| 20260504192101 | 71 | 0 | 0.0 | 5.0 | 0.00 | 0.00 | 0.00 | 39 | 1010.7 |
| 20260504191528 | 72 | 0 | 0.0 | 1.0 | 0.00 | 0.00 | 0.00 | 39 | 1010.6 |
| 20260504191027 | 72 | 0 | 0.0 | 2.0 | 0.00 | 0.00 | 0.00 | 40 | 1010.7 |
| 20260504190607 | 72 | 0 | 0.0 | 6.0 | 0.00 | 0.00 | 0.00 | 47 | 1010.8 |
| 20260504190032 | 71 | 0 | 0.0 | 6.0 | 0.00 | 0.00 | 0.00 | 40 | 1010.8 |
| 20260504185601 | 71 | 0 | 0.0 | 6.0 | 0.00 | 0.00 | 0.00 | 41 | 1010.9 |
| 20260504185017 | 71 | 70 | 0.0 | 5.0 | 0.00 | 0.00 | 0.00 | 43 | 1010.9 |
| 20260504184541 | 71 | 0 | 0.0 | 5.0 | 0.00 | 0.00 | 0.00 | 37 | 1011.0 |
| 20260504184047 | 71 | 0 | 0.0 | 9.0 | 0.00 | 0.00 | 0.00 | 39 | 1011.2 |
| 20260504183517 | 71 | 323 | 0.0 | 9.0 | 0.00 | 0.00 | 0.00 | 40 | 1011.3 |
| 20260504183033 | 71 | 27 | 0.0 | 4.0 | 0.00 | 0.00 | 0.00 | 39 | 1011.4 |
| 20260504182511 | 71 | 0 | 0.0 | 4.0 | 0.00 | 0.00 | 0.00 | 44 | 1011.5 |
| 20260504182012 | 70 | 0 | 0.0 | 4.0 | 0.00 | 0.00 | 0.00 | 38 | 1011.4 |
| 20260504181536 | 70 | 0 | 0.0 | 4.0 | 0.00 | 0.00 | 0.00 | 39 | 1011.4 |
| 20260504181054 | 71 | 0 | 0.0 | 2.0 | 0.00 | 0.00 | 0.00 | 40 | 1011.4 |
| 20260504180510 | 71 | 0 | 0.0 | 6.0 | 0.00 | 0.00 | 0.00 | 47 | 1011.6 |
| 20260504180031 | 70 | 0 | 0.0 | 6.0 | 0.00 | 0.00 | 0.00 | 40 | 1011.6 |
| 20260504175512 | 70 | 0 | 0.0 | 6.0 | 0.00 | 0.00 | 0.00 | 43 | 1011.7 |
| 20260504175013 | 69 | 0 | 0.0 | 4.0 | 0.00 | 0.00 | 0.00 | 44 | 1012.0 |
| 20260504174530 | 70 | 0 | 0.0 | 5.0 | 0.00 | 0.00 | 0.00 | 40 | 1011.8 |
| 20260504174014 | 70 | 0 | 0.0 | 5.0 | 0.00 | 0.00 | 0.00 | 40 | 1011.8 |
| 20260504173517 | 70 | 68 | 0.0 | 5.0 | 0.00 | 0.00 | 0.00 | 39 | 1011.9 |
| 20260504173036 | 70 | 0 | 0.0 | 5.0 | 0.00 | 0.00 | 0.00 | 41 | 1012.0 |
| 20260504172509 | 70 | 0 | 0.0 | 4.0 | 0.00 | 0.00 | 0.00 | 43 | 1012.0 |
| 20260504172012 | 69 | 0 | 0.0 | 4.0 | 0.00 | 0.00 | 0.00 | 43 | 1012.2 |
| 20260504171533 | 69 | 0 | 0.0 | 4.0 | 0.00 | 0.00 | 0.00 | 43 | 1012.1 |
| 20260504171015 | 69 | 0 | 0.0 | 5.0 | 0.00 | 0.00 | 0.00 | 40 | 1012.1 |
| 20260504170513 | 69 | 0 | 0.0 | 5.0 | 0.00 | 0.00 | 0.00 | 43 | 1012.3 |
| 20260504151015 | 65 | 0 | 0.0 | 4.0 | 0.00 | 0.00 | 0.00 | 48 | 1013.6 |
| 20260504150511 | 65 | 0 | 0.0 | 4.0 | 0.00 | 0.00 | 0.00 | 45 | 1013.6 |
| 20260504141014 | 61 | 0 | 0.0 | 2.0 | 0.00 | 0.00 | 0.00 | 57 | 1013.6 |
| 20260504140510 | 61 | 0 | 0.0 | 0.0 | 0.00 | 0.00 | 0.00 | 59 | 1013.6 |
| 20260504130520 | 55 | 0 | 0.0 | 3.0 | 0.00 | 0.00 | 0.00 | 69 | 1014.0 |
| 20260504110512 | 42 | 0 | 0.0 | 0.0 | 0.00 | 0.00 | 0.00 | 82 | 1014.5 |
| 20260504100515 | 40 | 0 | 0.0 | 2.0 | 0.00 | 0.00 | 0.00 | 80 | 1014.4 |
| 20260504060141 | 40 | 0 | 0.0 | 0.0 | 0.00 | 0.00 | 0.00 | 73 | 1014.3 |